This is the latest recevied weather packets stored in our database for station/object DM3DP. If no packets are shown the sender has not sent any weather packets the latest 10 day(s).
| Time | Temp. | Humidity | Pressure | Rain* | Wind** | Luminosity | Snow |
|---|---|---|---|---|---|---|---|
| 1777790126 | 16.67° C | 76% | 1010.6 hPa | 0 mm | - | 536 W/m² | - |
| 1777789796 | 16.67° C | 78% | 1010.5 hPa | 0 mm | - | 415 W/m² | - |
| 1777789466 | 15.56° C | 86% | 1010.5 hPa | 0 mm | - | 443 W/m² | - |
| 1777789137 | 15.56° C | 86% | 1010.5 hPa | 0 mm | - | 410 W/m² | - |
| 1777788806 | 15.56° C | 86% | 1010.5 hPa | 0 mm | - | 454 W/m² | - |
| 1777788476 | 15° C | 86% | 1010.5 hPa | 0 mm | - | 422 W/m² | - |
| 1777788146 | 14.44° C | 84% | 1010.5 hPa | 0 mm | - | 363 W/m² | - |
| 1777787816 | 14.44° C | 84% | 1010.4 hPa | 0 mm | - | 288 W/m² | - |
| 1777787487 | 14.44° C | 84% | 1010.4 hPa | 0 mm | - | 235 W/m² | - |
| 1777787156 | 14.44° C | 84% | 1010.4 hPa | 0 mm | - | 84 W/m² | - |
| 1777786826 | 15° C | 82% | 1010.4 hPa | 0 mm | - | 38 W/m² | - |
| 1777786496 | 15.56° C | 84% | 1010.4 hPa | 0 mm | - | 35 W/m² | - |
| 1777786166 | 14.44° C | 84% | 1010.4 hPa | 0 mm | - | 62 W/m² | - |
| 1777785837 | 14.44° C | 84% | 1010.4 hPa | 0 mm | - | 267 W/m² | - |
| 1777785506 | 12.78° C | 89% | 1010.4 hPa | 0 mm | - | 249 W/m² | - |
| 1777785177 | 11.67° C | 91% | 1010.4 hPa | 0 mm | - | 204 W/m² | - |
| 1777784847 | 11.67° C | 91% | 1010.4 hPa | 0 mm | - | 117 W/m² | - |
| 1777784516 | 11.67° C | 91% | 1010.4 hPa | 0 mm | - | 50 W/m² | - |
| 1777784186 | 11.67° C | 91% | 1010.4 hPa | 0 mm | - | 34 W/m² | - |
| 1777783856 | 11.67° C | 91% | 1010.4 hPa | 0 mm | - | 27 W/m² | - |
| 1777783527 | 11.67° C | 91% | 1010.4 hPa | 0 mm | - | 17 W/m² | - |
| 1777783194 | 11.67° C | 91% | 1010.4 hPa | 0 mm | - | 13 W/m² | - |
| 1777782864 | 11.67° C | 91% | 1010.4 hPa | 0 mm | - | 11 W/m² | - |
| 1777782534 | 12.22° C | 91% | 1010.4 hPa | 0 mm | - | 9 W/m² | - |
| 1777782204 | 12.22° C | 91% | 1010.4 hPa | 0 mm | - | 7 W/m² | - |
* Rain latest hour (hover to see other rain measurements)
** Current wind speed in m/s (hover to see current wind gust speed)